| time (UTC) | temp C | wind direction | speed KPH | gust KPH | rain 1hr cm | rain 24hr cm | rain mn cm | humidity % | barometer mb |
| 20260509191405 | 15 | 15 | 1.6 | 9.7 | 0.00 | 0.66 | 0.48 | 86 | 1009.4 |
| 20260509190905 | 14 | 10 | 6.4 | 14.5 | 0.00 | 0.66 | 0.48 | 85 | 1009.3 |
| 20260509190406 | 14 | 72 | 3.2 | 12.9 | 0.00 | 0.66 | 0.48 | 85 | 1009.3 |
| 20260509185905 | 14 | 55 | 3.2 | 11.3 | 0.00 | 0.66 | 0.48 | 85 | 1009.2 |
| 20260509185405 | 14 | 48 | 3.2 | 12.9 | 0.00 | 0.66 | 0.48 | 85 | 1009.2 |
| 20260509184905 | 14 | 44 | 3.2 | 9.7 | 0.00 | 0.66 | 0.48 | 84 | 1009.1 |
| 20260509183406 | 14 | 38 | 9.7 | 19.3 | 0.00 | 0.66 | 0.48 | 83 | 1008.8 |
| 20260509182405 | 14 | 27 | 8.0 | 14.5 | 0.00 | 0.66 | 0.48 | 83 | 1008.8 |
| 20260509181405 | 14 | 37 | 9.7 | 20.9 | 0.00 | 0.66 | 0.48 | 86 | 1008.8 |
| 20260509180905 | 14 | 39 | 4.8 | 11.3 | 0.00 | 0.66 | 0.48 | 87 | 1008.7 |
| 20260509180406 | 14 | 36 | 3.2 | 9.7 | 0.03 | 0.66 | 0.48 | 87 | 1008.7 |
| 20260509175905 | 14 | 48 | 0.0 | 1.6 | 0.03 | 0.66 | 0.48 | 88 | 1008.6 |
| 20260509175407 | 14 | 37 | 0.0 | 8.0 | 0.05 | 0.66 | 0.48 | 88 | 1008.6 |
| 20260509173405 | 13 | 85 | 1.6 | 4.8 | 0.15 | 0.66 | 0.48 | 87 | 1008.6 |
| 20260509172905 | 13 | 85 | 1.6 | 4.8 | 0.15 | 0.66 | 0.48 | 87 | 1008.4 |
| 20260509172405 | 13 | 85 | 0.0 | 1.6 | 0.15 | 0.66 | 0.48 | 88 | 1008.3 |
| 20260509171905 | 13 | 85 | 0.0 | 9.7 | 0.15 | 0.66 | 0.48 | 87 | 1008.2 |
| 20260509171405 | 13 | 110 | 0.0 | 8.0 | 0.15 | 0.66 | 0.48 | 87 | 1008.3 |
| 20260509170906 | 13 | 124 | 3.2 | 14.5 | 0.15 | 0.66 | 0.48 | 87 | 1008.3 |
| 20260509170406 | 13 | 123 | 3.2 | 9.7 | 0.13 | 0.64 | 0.46 | 86 | 1008.3 |
| 20260509165906 | 13 | 112 | 3.2 | 14.5 | 0.13 | 0.64 | 0.46 | 85 | 1008.5 |
| 20260509165405 | 13 | 150 | 3.2 | 14.5 | 0.08 | 0.61 | 0.43 | 85 | 1008.1 |
| 20260509164905 | 13 | 145 | 3.2 | 20.9 | 0.05 | 0.56 | 0.38 | 84 | 1008.2 |
| 20260509164405 | 14 | 124 | 4.8 | 19.3 | 0.03 | 0.53 | 0.36 | 83 | 1008.1 |
| 20260509163905 | 15 | 139 | 4.8 | 19.3 | 0.03 | 0.53 | 0.36 | 83 | 1008.1 |
| 20260509163405 | 15 | 104 | 8.0 | 20.9 | 0.00 | 0.51 | 0.33 | 82 | 1008.0 |
| 20260509162905 | 15 | 111 | 9.7 | 19.3 | 0.00 | 0.51 | 0.33 | 81 | 1007.8 |
| 20260509162406 | 16 | 93 | 8.0 | 25.7 | 0.00 | 0.51 | 0.33 | 80 | 1007.7 |
| 20260509161905 | 16 | 90 | 4.8 | 25.7 | 0.00 | 0.51 | 0.33 | 80 | 1007.7 |
| 20260509161405 | 16 | 75 | 4.8 | 16.1 | 0.00 | 0.51 | 0.33 | 80 | 1007.6 |
| 20260509160906 | 16 | 57 | 11.3 | 19.3 | 0.00 | 0.51 | 0.33 | 78 | 1007.4 |
| 20260509160405 | 16 | 84 | 12.9 | 24.1 | 0.00 | 0.51 | 0.33 | 78 | 1007.4 |
| 20260509155905 | 17 | 77 | 4.8 | 22.5 | 0.00 | 0.51 | 0.33 | 75 | 1007.1 |
| 20260509155405 | 17 | 74 | 8.0 | 20.9 | 0.00 | 0.51 | 0.33 | 72 | 1007.2 |
| 20260509154905 | 17 | 67 | 8.0 | 14.5 | 0.00 | 0.51 | 0.33 | 71 | 1007.0 |
| 20260509153905 | 17 | 86 | 9.7 | 22.5 | 0.00 | 0.51 | 0.33 | 70 | 1006.8 |
| 20260509153405 | 17 | 60 | 14.5 | 32.2 | 0.00 | 0.51 | 0.33 | 69 | 1006.6 |
| 20260509152405 | 17 | 45 | 16.1 | 32.2 | 0.00 | 0.51 | 0.33 | 68 | 1006.6 |
| 20260509151905 | 18 | 66 | 9.7 | 24.1 | 0.00 | 0.51 | 0.33 | 68 | 1006.5 |
| 20260509151406 | 18 | 54 | 11.3 | 29.0 | 0.00 | 0.51 | 0.33 | 66 | 1006.4 |
| 20260509150906 | 18 | 33 | 8.0 | 29.0 | 0.00 | 0.51 | 0.33 | 66 | 1006.4 |
| 20260509150405 | 18 | 67 | 14.5 | 33.8 | 0.00 | 0.51 | 0.33 | 65 | 1006.3 |
| 20260509145905 | 18 | 39 | 8.0 | 33.8 | 0.00 | 0.51 | 0.33 | 66 | 1006.3 |
| 20260509145405 | 18 | 53 | 11.3 | 25.7 | 0.00 | 0.51 | 0.33 | 65 | 1006.3 |
| 20260509144905 | 18 | 50 | 11.3 | 37.0 | 0.00 | 0.51 | 0.33 | 64 | 1006.2 |
| 20260509144406 | 18 | 46 | 17.7 | 37.0 | 0.00 | 0.51 | 0.33 | 61 | 1006.3 |
| 20260509143906 | 18 | 35 | 16.1 | 38.6 | 0.00 | 0.51 | 0.33 | 60 | 1006.3 |
| 20260509143405 | 18 | 68 | 14.5 | 35.4 | 0.00 | 0.51 | 0.33 | 62 | 1006.3 |
| 20260509142905 | 18 | 51 | 22.5 | 37.0 | 0.00 | 0.51 | 0.33 | 61 | 1006.3 |
| 20260509142405 | 18 | 58 | 16.1 | 38.6 | 0.00 | 0.51 | 0.33 | 60 | 1006.3 |
| 20260509141906 | 18 | 57 | 22.5 | 40.2 | 0.00 | 0.51 | 0.33 | 60 | 1006.3 |
| 20260509141405 | 19 | 34 | 25.7 | 40.2 | 0.00 | 0.51 | 0.33 | 59 | 1006.1 |
| 20260509140905 | 19 | 44 | 12.9 | 35.4 | 0.00 | 0.51 | 0.33 | 59 | 1006.0 |
| 20260509140405 | 19 | 29 | 14.5 | 35.4 | 0.00 | 0.51 | 0.33 | 57 | 1006.0 |
| 20260509135905 | 19 | 52 | 19.3 | 33.8 | 0.00 | 0.51 | 0.33 | 56 | 1006.0 |
| 20260509135405 | 20 | 43 | 16.1 | 33.8 | 0.00 | 0.51 | 0.33 | 57 | 1005.9 |
| 20260509134405 | 20 | 39 | 24.1 | 37.0 | 0.00 | 0.51 | 0.33 | 55 | 1005.9 |
| 20260509132405 | 20 | 67 | 16.1 | 35.4 | 0.00 | 0.51 | 0.33 | 60 | 1005.6 |
| 20260509131905 | 19 | 34 | 16.1 | 37.0 | 0.00 | 0.51 | 0.33 | 62 | 1005.6 |
| 20260509131405 | 20 | 54 | 19.3 | 37.0 | 0.00 | 0.51 | 0.33 | 63 | 1005.7 |
| 20260509130906 | 19 | 42 | 14.5 | 35.4 | 0.00 | 0.51 | 0.33 | 65 | 1005.7 |
| 20260509130405 | 19 | 32 | 20.9 | 35.4 | 0.00 | 0.51 | 0.33 | 65 | 1005.6 |
| 20260509125905 | 18 | 62 | 14.5 | 29.0 | 0.00 | 0.51 | 0.33 | 65 | 1005.6 |
| 20260509124905 | 18 | 40 | 16.1 | 32.2 | 0.00 | 0.51 | 0.33 | 67 | 1005.7 |
| 20260509124405 | 18 | 40 | 11.3 | 32.2 | 0.00 | 0.51 | 0.33 | 67 | 1005.7 |
| 20260509123905 | 18 | 61 | 19.3 | 32.2 | 0.00 | 0.51 | 0.33 | 68 | 1005.6 |
| 20260509123405 | 18 | 65 | 11.3 | 22.5 | 0.00 | 0.51 | 0.33 | 67 | 1005.7 |
| 20260509122905 | 18 | 25 | 22.5 | 33.8 | 0.00 | 0.51 | 0.33 | 65 | 1005.7 |
| 20260509122405 | 18 | 36 | 19.3 | 37.0 | 0.00 | 0.51 | 0.33 | 64 | 1005.6 |
| 20260509121906 | 18 | 39 | 19.3 | 33.8 | 0.00 | 0.51 | 0.33 | 64 | 1005.6 |
| 20260509121405 | 18 | 29 | 14.5 | 33.8 | 0.00 | 0.51 | 0.33 | 65 | 1005.7 |
| 20260509120905 | 18 | 46 | 22.5 | 45.1 | 0.00 | 0.51 | 0.33 | 64 | 1005.7 |
| 20260509120405 | 18 | 40 | 11.3 | 35.4 | 0.00 | 0.51 | 0.33 | 69 | 1005.6 |
| 20260509115905 | 18 | 54 | 12.9 | 37.0 | 0.00 | 0.51 | 0.33 | 70 | 1005.5 |
| 20260509115406 | 18 | 50 | 16.1 | 32.2 | 0.00 | 0.51 | 0.33 | 70 | 1005.5 |
| 20260509114405 | 18 | 59 | 14.5 | 32.2 | 0.00 | 0.51 | 0.33 | 68 | 1005.4 |
| 20260509113905 | 18 | 52 | 14.5 | 20.9 | 0.00 | 0.51 | 0.33 | 71 | 1005.2 |
| 20260509112905 | 18 | 26 | 11.3 | 19.3 | 0.00 | 0.51 | 0.33 | 70 | 1005.2 |
| 20260509112405 | 17 | 49 | 6.4 | 16.1 | 0.00 | 0.51 | 0.33 | 74 | 1005.1 |
| 20260509111406 | 17 | 38 | 9.7 | 19.3 | 0.00 | 0.51 | 0.33 | 74 | 1005.1 |
| 20260509110905 | 17 | 46 | 4.8 | 16.1 | 0.00 | 0.51 | 0.33 | 76 | 1005.0 |
| 20260509110405 | 17 | 31 | 3.2 | 14.5 | 0.00 | 0.51 | 0.33 | 77 | 1005.0 |
| 20260509105905 | 17 | 57 | 8.0 | 14.5 | 0.00 | 0.51 | 0.33 | 76 | 1005.0 |
| 20260509105405 | 17 | 24 | 14.5 | 24.1 | 0.00 | 0.51 | 0.33 | 75 | 1004.9 |
| 20260509104905 | 17 | 34 | 3.2 | 14.5 | 0.00 | 0.51 | 0.33 | 76 | 1004.9 |
| 20260509104405 | 17 | 8 | 8.0 | 19.3 | 0.00 | 0.51 | 0.33 | 75 | 1004.9 |
| 20260509103905 | 17 | 13 | 9.7 | 19.3 | 0.00 | 0.51 | 0.33 | 76 | 1004.9 |
| 20260509103405 | 17 | 20 | 11.3 | 20.9 | 0.00 | 0.51 | 0.33 | 76 | 1005.0 |
| 20260509102906 | 17 | 39 | 9.7 | 20.9 | 0.00 | 0.51 | 0.33 | 78 | 1004.9 |
| 20260509102405 | 16 | 30 | 11.3 | 25.7 | 0.00 | 0.51 | 0.33 | 79 | 1005.0 |
| 20260509101405 | 16 | 4 | 4.8 | 12.9 | 0.00 | 0.51 | 0.33 | 80 | 1004.9 |
| 20260509100904 | 16 | 346 | 9.7 | 14.5 | 0.00 | 0.51 | 0.33 | 79 | 1004.9 |
| 20260509095906 | 16 | 14 | 8.0 | 16.1 | 0.00 | 0.51 | 0.33 | 81 | 1004.8 |
| 20260509095405 | 16 | 21 | 3.2 | 19.3 | 0.00 | 0.51 | 0.33 | 83 | 1004.7 |
| 20260509094906 | 16 | 15 | 8.0 | 16.1 | 0.00 | 0.51 | 0.33 | 82 | 1004.7 |
| 20260509094405 | 15 | 37 | 4.8 | 14.5 | 0.00 | 0.51 | 0.33 | 83 | 1004.8 |
| 20260509093905 | 15 | 326 | 8.0 | 19.3 | 0.00 | 0.51 | 0.33 | 83 | 1004.9 |
| 20260509093405 | 15 | 29 | 9.7 | 20.9 | 0.00 | 0.51 | 0.33 | 83 | 1005.0 |
| 20260509092905 | 15 | 17 | 3.2 | 12.9 | 0.00 | 0.51 | 0.33 | 85 | 1005.0 |
| 20260509091905 | 15 | 9 | 8.0 | 14.5 | 0.00 | 0.51 | 0.33 | 85 | 1005.2 |
| 20260509091405 | 15 | 12 | 4.8 | 16.1 | 0.00 | 0.51 | 0.33 | 85 | 1005.2 |
| 20260509090905 | 15 | 20 | 6.4 | 16.1 | 0.00 | 0.51 | 0.33 | 86 | 1005.2 |
| 20260509090405 | 14 | 5 | 8.0 | 11.3 | 0.00 | 0.51 | 0.33 | 86 | 1005.1 |
| 20260509085905 | 14 | 6 | 3.2 | 12.9 | 0.00 | 0.51 | 0.33 | 88 | 1005.1 |
| 20260509085405 | 14 | 19 | 9.7 | 19.3 | 0.00 | 0.51 | 0.33 | 88 | 1005.1 |
| 20260509084905 | 14 | 18 | 8.0 | 14.5 | 0.03 | 0.51 | 0.33 | 89 | 1005.0 |
| 20260509084405 | 14 | 11 | 6.4 | 16.1 | 0.03 | 0.51 | 0.33 | 90 | 1005.0 |
| 20260509083905 | 14 | 12 | 4.8 | 11.3 | 0.03 | 0.51 | 0.33 | 91 | 1005.0 |
| 20260509083405 | 13 | 350 | 8.0 | 19.3 | 0.03 | 0.51 | 0.33 | 92 | 1005.0 |
| 20260509082904 | 13 | 353 | 6.4 | 19.3 | 0.03 | 0.51 | 0.33 | 92 | 1005.1 |
| 20260509082404 | 13 | 301 | 3.2 | 14.5 | 0.03 | 0.51 | 0.33 | 93 | 1005.0 |
| 20260509081905 | 13 | 328 | 3.2 | 12.9 | 0.05 | 0.51 | 0.33 | 93 | 1005.1 |
| 20260509081405 | 13 | 340 | 4.8 | 9.7 | 0.05 | 0.51 | 0.33 | 93 | 1005.1 |
| 20260509080905 | 13 | 307 | 0.0 | 11.3 | 0.05 | 0.51 | 0.33 | 93 | 1005.1 |
| 20260509080404 | 13 | 274 | 3.2 | 14.5 | 0.05 | 0.51 | 0.33 | 93 | 1005.0 |
| 20260509075905 | 13 | 289 | 4.8 | 11.3 | 0.05 | 0.51 | 0.33 | 93 | 1005.2 |
| 20260509075405 | 13 | 325 | 1.6 | 9.7 | 0.10 | 0.51 | 0.33 | 93 | 1005.3 |
| 20260509074405 | 13 | 329 | 4.8 | 9.7 | 0.13 | 0.51 | 0.33 | 92 | 1005.4 |
| 20260509073905 | 13 | 2 | 3.2 | 11.3 | 0.15 | 0.51 | 0.33 | 92 | 1005.3 |
| 20260509073405 | 13 | 312 | 4.8 | 11.3 | 0.15 | 0.51 | 0.33 | 92 | 1005.4 |
| 20260509072405 | 12 | 351 | 4.8 | 14.5 | 0.18 | 0.51 | 0.33 | 92 | 1005.4 |
| 20260509071906 | 12 | 17 | 6.4 | 14.5 | 0.15 | 0.48 | 0.30 | 92 | 1005.4 |
| 20260509071405 | 13 | 21 | 4.8 | 11.3 | 0.18 | 0.48 | 0.30 | 91 | 1005.5 |
| 20260509070904 | 13 | 24 | 1.6 | 11.3 | 0.18 | 0.48 | 0.30 | 91 | 1005.4 |
| 20260509070406 | 13 | 7 | 3.2 | 9.7 | 0.15 | 0.46 | 0.28 | 91 | 1005.4 |
| 20260509065905 | 13 | 11 | 4.8 | 16.1 | 0.15 | 0.46 | 0.28 | 91 | 1005.4 |
| 20260509065405 | 13 | 31 | 6.4 | 16.1 | 0.13 | 0.43 | 0.23 | 90 | 1005.4 |
| 20260509064905 | 13 | 359 | 3.2 | 12.9 | 0.08 | 0.38 | 0.20 | 90 | 1005.4 |
| 20260509064405 | 13 | 18 | 4.8 | 16.1 | 0.08 | 0.38 | 0.20 | 90 | 1005.4 |
| 20260509062905 | 13 | 15 | 8.0 | 14.5 | 0.05 | 0.33 | 0.15 | 90 | 1005.3 |
| 20260509062405 | 13 | 29 | 8.0 | 16.1 | 0.03 | 0.33 | 0.15 | 90 | 1005.2 |
| 20260509060905 | 13 | 43 | 3.2 | 8.0 | 0.00 | 0.30 | 0.13 | 91 | 1004.8 |
| 20260509060405 | 13 | 345 | 1.6 | 8.0 | 0.00 | 0.30 | 0.13 | 91 | 1004.8 |
| 20260509055905 | 13 | 219 | 1.6 | 8.0 | 0.00 | 0.30 | 0.13 | 91 | 1004.7 |
| 20260509055405 | 13 | 353 | 1.6 | 4.8 | 0.00 | 0.30 | 0.13 | 91 | 1004.7 |
| 20260509054906 | 13 | 304 | 0.0 | 3.2 | 0.00 | 0.30 | 0.13 | 91 | 1004.7 |
| 20260509053905 | 13 | 16 | 1.6 | 11.3 | 0.00 | 0.30 | 0.13 | 91 | 1004.8 |
| 20260509053405 | 13 | 343 | 1.6 | 4.8 | 0.00 | 0.30 | 0.13 | 92 | 1004.7 |
| 20260509052905 | 12 | 343 | 3.2 | 8.0 | 0.00 | 0.30 | 0.13 | 92 | 1004.8 |
| 20260509051905 | 12 | 347 | 1.6 | 4.8 | 0.00 | 0.30 | 0.13 | 92 | 1004.9 |
| 20260509051404 | 12 | 355 | 0.0 | 3.2 | 0.00 | 0.30 | 0.13 | 91 | 1005.0 |
| 20260509050904 | 13 | 355 | 0.0 | 4.8 | 0.00 | 0.30 | 0.13 | 91 | 1004.9 |
| 20260509045905 | 13 | 96 | 0.0 | 4.8 | 0.00 | 0.30 | 0.13 | 91 | 1004.9 |
| 20260509045405 | 13 | 347 | 3.2 | 9.7 | 0.00 | 0.30 | 0.13 | 91 | 1005.0 |
| 20260509044904 | 13 | 294 | 3.2 | 16.1 | 0.00 | 0.30 | 0.13 | 91 | 1004.9 |
| 20260509044405 | 13 | 302 | 4.8 | 8.0 | 0.10 | 0.30 | 0.13 | 91 | 1005.0 |
| 20260509043905 | 13 | 306 | 3.2 | 12.9 | 0.13 | 0.30 | 0.13 | 90 | 1005.1 |
| 20260509043405 | 13 | 295 | 4.8 | 12.9 | 0.13 | 0.30 | 0.13 | 90 | 1005.0 |
| 20260509042905 | 13 | 266 | 4.8 | 12.9 | 0.13 | 0.30 | 0.13 | 90 | 1005.1 |
| 20260509041905 | 13 | 260 | 3.2 | 12.9 | 0.13 | 0.30 | 0.13 | 90 | 1005.2 |
| 20260509041405 | 13 | 284 | 3.2 | 8.0 | 0.13 | 0.30 | 0.13 | 89 | 1005.3 |
| 20260509040904 | 13 | 285 | 3.2 | 11.3 | 0.13 | 0.30 | 0.13 | 89 | 1005.4 |
| 20260509040405 | 13 | 296 | 1.6 | 8.0 | 0.13 | 0.30 | 0.13 | 89 | 1005.4 |
| 20260509035905 | 13 | 310 | 0.0 | 4.8 | 0.13 | 0.30 | 0.13 | 89 | 1005.4 |
| 20260509035404 | 13 | 307 | 1.6 | 8.0 | 0.13 | 0.30 | 0.13 | 88 | 1005.5 |
| 20260509034905 | 13 | 311 | 3.2 | 11.3 | 0.13 | 0.30 | 0.13 | 88 | 1005.7 |
| 20260509034404 | 13 | 21 | 4.8 | 9.7 | 0.03 | 0.20 | 0.03 | 87 | 1005.9 |
| 20260509033905 | 13 | 324 | 6.4 | 12.9 | 0.00 | 0.18 | 0.00 | 87 | 1005.8 |
| 20260509033405 | 13 | 10 | 0.0 | 8.0 | 0.00 | 0.18 | 0.00 | 87 | 1005.9 |
| 20260509032905 | 13 | 20 | 4.8 | 12.9 | 0.00 | 0.18 | 0.00 | 87 | 1005.8 |
| 20260509032405 | 13 | 322 | 8.0 | 12.9 | 0.00 | 0.18 | 0.00 | 88 | 1005.9 |
| 20260509031905 | 13 | 11 | 0.0 | 1.6 | 0.00 | 0.18 | 0.00 | 87 | 1006.0 |
| 20260509031406 | 13 | 11 | 3.2 | 8.0 | 0.00 | 0.18 | 0.00 | 87 | 1006.1 |
| 20260509030905 | 13 | 11 | 0.0 | 8.0 | 0.00 | 0.18 | 0.00 | 87 | 1006.2 |
| 20260509030405 | 13 | 11 | 1.6 | 8.0 | 0.00 | 0.18 | 0.00 | 87 | 1006.3 |
| 20260509025905 | 13 | 11 | 3.2 | 8.0 | 0.00 | 0.18 | 0.00 | 87 | 1006.3 |
| 20260509025404 | 13 | 11 | 4.8 | 12.9 | 0.00 | 0.18 | 0.00 | 87 | 1006.3 |
| 20260509024404 | 12 | 352 | 4.8 | 12.9 | 0.00 | 0.18 | 0.00 | 87 | 1006.4 |
| 20260509023905 | 12 | 5 | 3.2 | 9.7 | 0.00 | 0.18 | 0.00 | 87 | 1006.3 |
| 20260509023404 | 12 | 355 | 0.0 | 4.8 | 0.00 | 0.18 | 0.00 | 87 | 1006.4 |
| 20260509022905 | 12 | 26 | 3.2 | 12.9 | 0.00 | 0.18 | 0.00 | 87 | 1006.3 |
| 20260509022405 | 13 | 23 | 1.6 | 14.5 | 0.00 | 0.18 | 0.00 | 87 | 1006.3 |
| 20260509021905 | 13 | 355 | 8.0 | 14.5 | 0.00 | 0.18 | 0.00 | 87 | 1006.5 |
| 20260509021405 | 13 | 21 | 4.8 | 19.3 | 0.00 | 0.18 | 0.00 | 87 | 1006.5 |
| 20260509020906 | 13 | 18 | 4.8 | 12.9 | 0.00 | 0.18 | 0.00 | 87 | 1006.7 |
| 20260509020405 | 13 | 14 | 6.4 | 14.5 | 0.00 | 0.18 | 0.00 | 87 | 1006.7 |
| 20260509015905 | 13 | 0 | 4.8 | 12.9 | 0.00 | 0.18 | 0.00 | 87 | 1006.8 |
| 20260509015405 | 13 | 25 | 6.4 | 9.7 | 0.00 | 0.18 | 0.00 | 87 | 1006.9 |
| 20260509014904 | 13 | 24 | 3.2 | 11.3 | 0.00 | 0.18 | 0.00 | 86 | 1006.9 |
| 20260509014404 | 13 | 26 | 8.0 | 12.9 | 0.00 | 0.18 | 0.00 | 86 | 1007.0 |
| 20260509013905 | 13 | 352 | 3.2 | 11.3 | 0.00 | 0.18 | 0.00 | 86 | 1007.0 |
| 20260509013405 | 13 | 34 | 0.0 | 9.7 | 0.00 | 0.18 | 0.00 | 86 | 1007.1 |
| 20260509012905 | 13 | 10 | 3.2 | 11.3 | 0.00 | 0.18 | 0.00 | 86 | 1007.2 |
| 20260509011905 | 13 | 4 | 4.8 | 12.9 | 0.00 | 0.18 | 0.00 | 86 | 1007.2 |
| 20260509011404 | 13 | 34 | 6.4 | 14.5 | 0.00 | 0.18 | 0.00 | 86 | 1007.3 |
| 20260509005905 | 13 | 22 | 8.0 | 16.1 | 0.00 | 0.18 | 0.00 | 86 | 1007.4 |
| 20260509005405 | 13 | 16 | 6.4 | 14.5 | 0.00 | 0.18 | 0.00 | 86 | 1007.5 |
| 20260509004905 | 13 | 22 | 8.0 | 14.5 | 0.00 | 0.18 | 0.00 | 86 | 1007.6 |
| 20260509004404 | 13 | 16 | 3.2 | 14.5 | 0.00 | 0.18 | 0.00 | 86 | 1007.5 |
| 20260509003404 | 13 | 356 | 9.7 | 19.3 | 0.00 | 0.18 | 0.00 | 87 | 1007.5 |
| 20260509002905 | 13 | 45 | 6.4 | 14.5 | 0.00 | 0.18 | 0.00 | 88 | 1007.6 |
| 20260509002405 | 13 | 353 | 6.4 | 14.5 | 0.00 | 0.18 | 0.00 | 88 | 1007.7 |
| 20260509001404 | 13 | 22 | 11.3 | 19.3 | 0.00 | 0.18 | 0.00 | 88 | 1007.6 |
| 20260509000905 | 13 | 351 | 8.0 | 20.9 | 0.00 | 0.18 | 0.00 | 88 | 1007.7 |
| 20260509000405 | 13 | 4 | 9.7 | 20.9 | 0.00 | 0.18 | 0.00 | 87 | 1007.8 |
| 20260508235404 | 13 | 11 | 9.7 | 20.9 | 0.00 | 0.18 | 0.00 | 88 | 1007.9 |
| 20260508234904 | 13 | 32 | 8.0 | 19.3 | 0.00 | 0.18 | 0.00 | 88 | 1007.8 |
| 20260508233905 | 13 | 20 | 9.7 | 19.3 | 0.00 | 0.18 | 0.00 | 87 | 1007.7 |
| 20260508233405 | 13 | 8 | 9.7 | 19.3 | 0.00 | 0.18 | 0.00 | 87 | 1007.8 |
| 20260508232904 | 13 | 30 | 9.7 | 19.3 | 0.00 | 0.18 | 0.00 | 87 | 1007.8 |
| 20260508232405 | 13 | 15 | 8.0 | 20.9 | 0.00 | 0.18 | 0.00 | 86 | 1007.7 |
| 20260508231905 | 13 | 54 | 8.0 | 19.3 | 0.00 | 0.18 | 0.00 | 86 | 1007.7 |
| 20260508230905 | 13 | 2 | 8.0 | 22.5 | 0.00 | 0.18 | 0.00 | 86 | 1007.5 |
| 20260508230405 | 13 | 16 | 9.7 | 14.5 | 0.00 | 0.18 | 0.00 | 87 | 1007.7 |
| 20260508225904 | 13 | 355 | 8.0 | 14.5 | 0.00 | 0.18 | 0.18 | 88 | 1008.0 |
| 20260508225405 | 13 | 9 | 6.4 | 16.1 | 0.03 | 0.18 | 0.18 | 88 | 1008.0 |
| 20260508224905 | 13 | 332 | 4.8 | 16.1 | 0.03 | 0.18 | 0.18 | 88 | 1007.9 |
| 20260508224405 | 13 | 50 | 4.8 | 12.9 | 0.03 | 0.18 | 0.18 | 89 | 1007.9 |
| 20260508223904 | 13 | 12 | 1.6 | 12.9 | 0.03 | 0.18 | 0.18 | 89 | 1007.6 |
| 20260508223406 | 13 | 304 | 4.8 | 14.5 | 0.03 | 0.18 | 0.18 | 89 | 1007.6 |
| 20260508222905 | 13 | 313 | 1.6 | 9.7 | 0.03 | 0.18 | 0.18 | 89 | 1007.3 |
| 20260508222405 | 13 | 333 | 3.2 | 9.7 | 0.05 | 0.18 | 0.18 | 88 | 1007.3 |
| 20260508221905 | 13 | 28 | 4.8 | 16.1 | 0.05 | 0.18 | 0.18 | 89 | 1007.9 |
| 20260508221404 | 14 | 11 | 6.4 | 12.9 | 0.05 | 0.18 | 0.18 | 89 | 1008.2 |
| 20260508220905 | 14 | 14 | 11.3 | 16.1 | 0.05 | 0.18 | 0.18 | 88 | 1008.3 |
| 20260508220405 | 14 | 20 | 9.7 | 20.9 | 0.05 | 0.18 | 0.18 | 88 | 1008.4 |
| 20260508215404 | 14 | 46 | 6.4 | 11.3 | 0.03 | 0.15 | 0.15 | 89 | 1008.5 |
| 20260508214405 | 14 | 21 | 0.0 | 4.8 | 0.03 | 0.15 | 0.15 | 89 | 1008.7 |
| 20260508213904 | 14 | 21 | 3.2 | 9.7 | 0.03 | 0.15 | 0.15 | 88 | 1008.7 |
| 20260508213404 | 14 | 21 | 6.4 | 12.9 | 0.03 | 0.15 | 0.15 | 88 | 1008.8 |
| 20260508212904 | 14 | 24 | 8.0 | 19.3 | 0.03 | 0.15 | 0.15 | 88 | 1008.7 |
| 20260508212404 | 14 | 13 | 9.7 | 16.1 | 0.00 | 0.15 | 0.15 | 89 | 1008.8 |
| 20260508210404 | 14 | 45 | 8.0 | 12.9 | 0.03 | 0.15 | 0.15 | 88 | 1008.8 |
| 20260508205905 | 14 | 84 | 0.0 | 1.6 | 0.03 | 0.15 | 0.15 | 88 | 1008.7 |
| 20260508204904 | 14 | 84 | 0.0 | 0.0 | 0.03 | 0.15 | 0.15 | 88 | 1008.5 |
| 20260508203904 | 14 | 84 | 0.0 | 0.0 | 0.15 | 0.15 | 0.15 | 87 | 1008.3 |
| 20260508202904 | 14 | 82 | 6.4 | 9.7 | 0.15 | 0.15 | 0.15 | 87 | 1008.1 |
| 20260508201904 | 14 | 39 | 3.2 | 12.9 | 0.15 | 0.15 | 0.15 | 86 | 1008.1 |
| 20260508201405 | 14 | 35 | 3.2 | 11.3 | 0.15 | 0.15 | 0.15 | 85 | 1008.0 |
| 20260508200405 | 15 | 54 | 3.2 | 9.7 | 0.13 | 0.13 | 0.13 | 85 | 1007.8 |
| 20260508195905 | 15 | 44 | 1.6 | 12.9 | 0.13 | 0.13 | 0.13 | 84 | 1007.8 |
| 20260508195405 | 15 | 65 | 3.2 | 8.0 | 0.13 | 0.13 | 0.13 | 82 | 1007.8 |
| 20260508194904 | 15 | 46 | 1.6 | 9.7 | 0.13 | 0.13 | 0.13 | 81 | 1007.8 |
| 20260508194405 | 15 | 37 | 4.8 | 14.5 | 0.10 | 0.10 | 0.10 | 78 | 1007.9 |
| 20260508193905 | 16 | 12 | 11.3 | 29.0 | 0.00 | 0.00 | 0.00 | 75 | 1008.2 |
| 20260508193404 | 17 | 34 | 20.9 | 40.2 | 0.00 | 0.00 | 0.00 | 70 | 1007.9 |
| 20260508192905 | 17 | 58 | 12.9 | 24.1 | 0.00 | 0.00 | 0.00 | 66 | 1007.8 |
| 20260508192405 | 18 | 30 | 8.0 | 9.7 | 0.00 | 0.00 | 0.00 | 62 | 1007.4 |
| 20260508191906 | 18 | 30 | 0.0 | 3.2 | 0.00 | 0.00 | 0.00 | 60 | 1007.2 |